Regional Weather Roundup
Issued by NWS

Home | Current Version | Previous Version | Graphics & Text | Print | Product List | Glossary On
Versions: 1 2 3 4 5 6 7 8 9 10 11 12 13 14 15 16 17 18 19 20 21 22 23 24 25 26 27
000
ASUS43 KDMX 170907
RWRIA

WEATHER ROUNDUP FOR IOWA
NATIONAL WEATHER SERVICE DES MOINES IA
400 AM CDT THU APR 17 2014

NOTE: "FAIR" INDICATES FEW OR NO CLOUDS BELOW 12,000 FEET WITH NO
SIGNIFICANT WEATHER AND/OR OBSTRUCTIONS TO VISIBILITY.

* - THESE STATIONS ARE NOT NWS STATIONS...THUS NOT UNDER NWS
QUALITY CONTROL.  THEY ALSO DO NOT REPORT WEATHER SUCH
AS PRECIPITATION OR FOG.

IAZ001>003-012>014-020>022-031>034-043>046-171000-
   NORTHWEST IOWA

CITY           SKY/WX    TMP DP  RH WIND       PRES   REMARKS
CARROLL *      CLOUDY    32  27  80 N26G32    30.11S WCI  18
CHEROKEE *     CLOUDY    30  27  86 N13G24    30.16R WCI  20
DENISON *      CLOUDY    32  27  80 N17G25    30.13R WCI  21
LE MARS *      CLOUDY    30  25  80 N16G26    30.18S WCI  19
ORANGE CITY *  CLOUDY    28  25  86 N15       30.16S WCI  17
SHELDON *      CLOUDY    28  25  86 NW16G24   30.15R WCI  17
SIOUX CITY     CLOUDY    32  24  72 N16       30.20R WCI  21
SPENCER        CLOUDY    29  24  82 N18       30.13R WCI  16
STORM LAKE *   CLOUDY    30  27  86 NW16G23   30.14R WCI  19
$$

IAZ055>058-069>071-079>083-090>094-171000-
   SOUTHWEST IOWA

CITY           SKY/WX    TMP DP  RH WIND       PRES   REMARKS
ATLANTIC *     CLOUDY    32  28  86 NW16G24   30.16R WCI  21
AUDUBON *      CLOUDY    32  25  74 NW13G24   30.14R WCI  22
CLARINDA *     CLOUDY    36  30  80 N13G20    30.19R WCI  27
COUNCIL BLFS * CLOUDY    32  28  86 NW18G26   30.16R WCI  20
CRESTON *      CLOUDY    34  30  86 NW17      30.14R WCI  23
HARLAN  *      CLOUDY    32  27  80 N21       30.18R WCI  20
LAMONI         CLOUDY    36  30  79 NW14      30.12R WCI  27
RED OAK *      CLOUDY    34  28  80 NW12G18   30.18R WCI  25
SHENANDOAH *   CLOUDY    36  28  75 NW10G17   30.21R WCI  28
$$

IAZ047>049-059>061-072>074-084-171000-
   CENTRAL IOWA

CITY           SKY/WX    TMP DP  RH WIND       PRES   REMARKS
AMES           CLOUDY    32  28  85 NW20      30.09R WCI  20
ANKENY *       CLOUDY    36  30  80 NW15      30.10R WCI  26
CHARITON *     CLOUDY    37  32  81 NW14G21   30.10R WCI  29
DES MOINES     CLOUDY    36  29  75 NW17G23   30.12R WCI  26
GRINNELL*      CLOUDY    36  32  87 W14G21    30.07R WCI  27
KNOXVILLE *    CLOUDY    37  30  75 W16G23    30.09R WCI  28
MARSHALLTOWN   CLOUDY    33  31  92 W18G25    30.05R WCI  22
NEWTON *       CLOUDY    36  32  87 W13G21    30.09R WCI  27
PELLA *        CLOUDY    37  32  82 NW14G22   30.10R WCI  28
PERRY *        CLOUDY    33  28  83 NW14G22   30.11R WCI  23
$$

IAZ004>006-015-016-023>025-035-036-171000-
   NORTH CENTRAL IOWA

CITY           SKY/WX    TMP DP  RH WIND       PRES   REMARKS
ALGONA *       CLOUDY    30  27  86 NW21G28   30.10R WCI  17
CLARION *      CLOUDY    30  28  93 NW23      30.07R WCI  17
ESTHERVILLE    CLOUDY    28  26  92 NW22G29   30.10R WCI  14
FORT DODGE *   CLOUDY    30  25  80 NW13G18   30.12R WCI  20
MASON CITY     CLOUDY    31  29  92 NW23G30   30.04R WCI  18
FOREST CITY *  CLOUDY    32  30  93 NW20G26   30.04R WCI  20
IOWA FALLS *   CLOUDY    32  29  90 NW24G31   30.05R WCI  19
$$

IAZ007>011-017>019-026>030-037>042-050>054-066-171000-
   NORTHEAST IOWA

CITY           SKY/WX    TMP DP  RH WIND       PRES   REMARKS
CEDAR RAPIDS   CLOUDY    38  32  79 W18       30.02R WCI  28
CHARLES CITY * CLOUDY    34  30  86 W20       29.99R WCI  22
CLINTON *      MOCLDY    45  28  53 S14       30.04S
DECORAH *      CLOUDY    37  37 100 SW12G23   29.91R WCI  30
DUBUQUE        CLEAR     41  29  62 S16       29.96R
MONTICELLO *   CLOUDY    45  39  81 W15       29.98R
OELWEIN *      CLOUDY   N/A N/A N/A W20       29.99R
WATERLOO       CLOUDY    34  30  85 W14       30.01R WCI  25
$$

IAZ064-065-067-068-078-171000-
   EAST CENTRAL IOWA

CITY           SKY/WX    TMP DP  RH WIND       PRES   REMARKS
DAVENPORT      MOCLDY    46  27  47 S17G28    30.02R
IOWA CITY      CLOUDY    44  39  82 W20G26    30.04R
MT. PLEASANT * PTCLDY    43  35  73 W10       30.06R
MUSCATINE *    MOCLDY    45  37  76 SW12G17   30.05R
QUAD CITIES    CLOUDY    46  27  47 S16G23    30.02R
$$

IAZ062-063-075>077-085>089-095>099-171000-
   SOUTHEAST IOWA

CITY           SKY/WX    TMP DP  RH WIND       PRES   REMARKS
BURLINGTON     PTCLDY    44  30  57 SW12      30.05R
FAIRFIELD *    CLOUDY    43  37  81 W14G21    30.07R
FORT MADISON * PTCLDY    45  30  57 W7        30.07R
KEOKUK *       CLEAR     45  30  57 W14       30.07R
OSKALOOSA *    CLOUDY    39  35  83 W17       30.07R WCI  30
CENTERVILLE *  CLOUDY    37  36  93 W10G21    30.10R WCI  30
OTTUMWA        MOCLDY    38  33  82 W14G21    30.06R WCI  30
WASHINGTON *   CLOUDY    43  37  81 W15       30.06R
$$

ABBREVIATIONS USED IN REMARKS
   TC - TEMPERATURES IN CELSIUS
  WCI - WIND CHILL INDEX
   HX - HEAT INDEX
  VSB - VISIBILITY
$$




USA.gov is the U.S. government's official web portal to all federal, state and local government web resources and services.